Date,TemperatureHighF,TemperatureAvgF,TemperatureLowF,DewpointHighF,DewpointAvgF,DewpointLowF,HumidityHigh,HumidityAvg,HumidityLow,PressureMaxIn,PressureMinIn,WindSpeedMaxMPH,WindSpeedAvgMPH,GustSpeedMaxMPH,PrecipitationSumIn
2013-3-1,-200.0,0.0,200.0,-99.9,-99.9,-99.9,0,0,100,30.36,30.23,0,-999,0,0.00
2013-3-2,37.1,8.8,30.1,27.0,-64.9,-99.9,85,22,68,30.35,30.15,12,-720,0,0.00
2013-3-3,46.9,35.4,25.8,37.0,30.3,24.0,92,82,66,30.15,29.73,18,10,0,0.00
2013-3-4,39.1,33.3,27.8,34.0,29.0,19.0,92,84,63,30.16,29.69,14,6,0,0.00
2013-3-5,35.7,26.8,20.1,21.0,16.3,-99.9,82,67,55,30.52,30.17,23,-2,0,0.00
2013-3-6,40.3,26.1,14.1,24.0,18.9,11.0,90,76,51,30.55,30.31,16,6,0,0.00
2013-3-7,56.7,36.4,22.5,32.0,25.8,19.0,87,69,39,30.32,30.14,23,13,0,0.00
2013-3-8,59.3,43.2,27.1,46.0,35.1,24.0,94,75,53,30.22,29.93,24,12,0,0.06
2013-3-9,60.9,47.8,31.8,55.0,44.8,30.0,95,90,75,29.93,29.54,24,12,0,0.29
2013-3-10,31.8,24.0,19.7,31.0,22.5,18.0,100,94,92,30.11,29.77,25,14,0,0.30
2013-3-11,31.4,20.7,9.2,28.0,18.3,7.0,94,90,82,30.16,30.03,13,6,0,0.01
2013-3-12,38.6,29.6,21.6,30.0,24.4,17.0,93,81,60,30.45,30.16,17,7,0,0.03
2013-3-13,41.6,29.2,15.5,32.0,23.2,13.0,92,79,64,30.56,30.32,14,7,0,0.00
2013-3-14,61.3,43.3,29.4,49.0,35.6,25.0,92,76,58,30.31,30.16,14,6,0,0.00
2013-3-15,68.9,51.0,39.2,51.0,41.9,34.0,88,73,49,30.13,29.74,15,7,0,0.00
2013-3-16,43.3,31.9,28.1,39.0,26.8,23.0,89,81,72,30.25,29.88,14,7,0,0.00
2013-3-17,48.1,34.0,24.7,35.0,27.9,21.0,91,79,60,30.22,29.79,23,11,0,0.02
2013-3-18,43.3,35.4,27.1,34.0,24.4,16.0,95,67,38,30.16,29.78,28,9,0,0.06
2013-3-19,50.6,35.0,25.1,35.0,23.6,19.0,86,65,37,30.42,30.14,20,6,0,0.00
2013-3-20,39.4,27.4,16.8,21.0,15.3,12.0,82,63,39,30.51,30.18,14,5,0,0.00
2013-3-21,31.9,27.0,21.3,25.0,19.9,14.0,89,75,61,30.18,29.98,20,11,0,0.00
2013-3-22,31.4,28.7,25.0,29.0,24.7,17.0,92,85,60,30.13,30.05,12,6,0,0.01
2013-3-23,32.5,30.0,28.3,30.0,26.6,23.0,94,87,80,30.20,30.09,16,6,0,0.00
2013-3-24,30.9,25.4,20.6,27.0,19.1,15.0,94,78,63,30.26,30.17,19,10,0,0.00
2013-3-25,29.0,25.4,21.7,22.0,19.6,17.0,89,79,69,30.48,30.25,23,8,0,0.00
2013-3-26,43.8,28.3,13.8,25.0,18.7,10.0,86,69,44,30.51,30.33,12,5,0,0.01
2013-3-27,55.9,38.8,26.6,33.0,27.2,22.0,85,66,40,30.35,30.22,16,9,0,0.00
2013-3-28,62.7,42.4,25.4,36.0,28.7,-99.9,93,65,33,30.31,30.19,12,6,0,0.00
2013-3-29,71.4,53.8,36.0,43.0,36.4,29.0,89,56,30,30.26,30.05,19,10,0,0.00
2013-3-30,66.7,55.9,49.0,54.0,46.8,39.0,95,74,40,30.12,29.94,28,8,0,0.31
2013-3-31,60.6,49.4,33.3,45.0,35.2,29.0,91,62,34,30.18,29.96,14,7,0,0.02